Location: Anciles
(42.5833°N, 0.5167°E)
Time: 10:15:14
(UTC+00:00)

Cosmos 2251 Rocket - Pass Details

Date: 10 December 2019
Orbit: 765 x 791 km, 74.0° (Epoch: 26 January)

Event Time Altitude Azimuth Distance (km) Brightness Sun altitude
Rises 17:23:14 0° 205° (SSW) 3,255 7.5 -10.5°
Reaches altitude 10° 17:25:37 10° 208° (SSW) 2,327 6.8 -10.9°
Maximum altitude 17:30:53 69° 291° (WNW) 830 3.8 -11.8°
Drops below altitude 10° 17:36:10 10° 15° (NNE) 2,325 5.7 -12.7°
Enters shadow 17:37:54 - 18° (NNE) 2,995 6.2 -13.0°
